| time (UTC) | temp C | wind direction | speed KPH | gust KPH | rain 1hr cm | rain 24hr cm | rain mn cm | humidity % | barometer mb |
| 20260505034552 | 17 | 292 | 6.4 | 14.5 | 0.00 | 0.00 | 0.00 | 67 | 1010.5 |
| 20260505033039 | 17 | 294 | 6.4 | 14.5 | 0.00 | 0.00 | 0.00 | 65 | 1010.3 |
| 20260505031537 | 18 | 298 | 8.0 | 17.7 | 0.00 | 0.00 | 0.00 | 63 | 1009.9 |
| 20260505030046 | 19 | 286 | 12.9 | 22.5 | 0.00 | 0.00 | 0.00 | 60 | 1009.5 |
| 20260505024536 | 20 | 301 | 16.1 | 24.1 | 0.00 | 0.00 | 0.00 | 58 | 1009.3 |
| 20260505023042 | 20 | 315 | 16.1 | 24.1 | 0.00 | 0.00 | 0.00 | 56 | 1009.3 |
| 20260505021535 | 21 | 274 | 19.3 | 27.4 | 0.00 | 0.00 | 0.00 | 54 | 1009.0 |
| 20260505020045 | 21 | 302 | 17.7 | 25.7 | 0.00 | 0.00 | 0.00 | 52 | 1009.0 |
| 20260505014539 | 22 | 282 | 12.9 | 25.7 | 0.00 | 0.00 | 0.00 | 50 | 1009.0 |
| 20260505013039 | 22 | 296 | 12.9 | 24.1 | 0.00 | 0.00 | 0.00 | 50 | 1009.1 |
| 20260505011634 | 23 | 309 | 12.9 | 22.5 | 0.00 | 0.00 | 0.00 | 46 | 1009.1 |
| 20260505010031 | 23 | 311 | 14.5 | 22.5 | 0.00 | 0.00 | 0.00 | 46 | 1009.0 |
| 20260505004554 | 24 | 323 | 12.9 | 25.7 | 0.00 | 0.00 | 0.00 | 44 | 1008.9 |
| 20260505003030 | 25 | 311 | 16.1 | 20.9 | 0.00 | 0.00 | 0.00 | 41 | 1008.7 |
| 20260505001535 | 25 | 300 | 14.5 | 27.4 | 0.00 | 0.00 | 0.00 | 40 | 1008.5 |
| 20260505000030 | 26 | 321 | 12.9 | 24.1 | 0.00 | 0.00 | 0.00 | 42 | 1008.6 |
| 20260504234528 | 26 | 345 | 14.5 | 29.0 | 0.00 | 0.08 | 0.00 | 39 | 1008.5 |
| 20260504233026 | 26 | 329 | 11.3 | 22.5 | 0.00 | 0.08 | 0.00 | 42 | 1008.5 |
| 20260504231524 | 27 | 310 | 12.9 | 22.5 | 0.00 | 0.08 | 0.00 | 43 | 1008.4 |
| 20260504230023 | 26 | 45 | 4.8 | 16.1 | 0.00 | 0.08 | 0.00 | 49 | 1008.5 |
| 20260504224524 | 26 | 180 | 1.6 | 8.0 | 0.00 | 0.08 | 0.00 | 49 | 1008.8 |
| 20260504223017 | 26 | 229 | 9.7 | 14.5 | 0.00 | 0.08 | 0.00 | 53 | 1009.2 |
| 20260504221514 | 25 | 226 | 11.3 | 14.5 | 0.00 | 0.08 | 0.00 | 53 | 1009.5 |
| 20260504220011 | 25 | 180 | 11.3 | 16.1 | 0.00 | 0.08 | 0.00 | 56 | 1009.7 |
| 20260504214510 | 25 | 246 | 11.3 | 19.3 | 0.00 | 0.08 | 0.00 | 55 | 1009.9 |
| 20260504213019 | 24 | 178 | 9.7 | 17.7 | 0.00 | 0.08 | 0.00 | 56 | 1010.1 |
| 20260504211506 | 24 | 240 | 9.7 | 19.3 | 0.00 | 0.08 | 0.00 | 55 | 1010.1 |
| 20260504210002 | 24 | 171 | 4.8 | 16.1 | 0.00 | 0.08 | 0.00 | 58 | 1010.5 |
| 20260504204559 | 23 | 190 | 3.2 | 17.7 | 0.00 | 0.08 | 0.00 | 58 | 1010.6 |
| 20260504203056 | 23 | 153 | 6.4 | 16.1 | 0.00 | 0.08 | 0.00 | 58 | 1010.8 |
| 20260504201555 | 23 | 257 | 9.7 | 17.7 | 0.00 | 0.08 | 0.00 | 60 | 1011.0 |
| 20260504200052 | 22 | 233 | 9.7 | 19.3 | 0.00 | 0.08 | 0.00 | 60 | 1011.2 |
| 20260504194556 | 22 | 207 | 3.2 | 12.9 | 0.00 | 0.08 | 0.00 | 61 | 1011.3 |
| 20260504193049 | 22 | 227 | 3.2 | 12.9 | 0.00 | 0.08 | 0.00 | 62 | 1011.6 |
| 20260504191608 | 21 | 126 | 4.8 | 9.7 | 0.00 | 0.08 | 0.00 | 60 | 1011.8 |
| 20260504190044 | 21 | 204 | 8.0 | 14.5 | 0.00 | 0.08 | 0.00 | 64 | 1012.0 |
| 20260504184550 | 21 | 229 | 0.0 | 8.0 | 0.00 | 0.08 | 0.00 | 65 | 1012.1 |
| 20260504183038 | 20 | 134 | 1.6 | 11.3 | 0.00 | 0.08 | 0.00 | 65 | 1012.3 |
| 20260504181535 | 21 | 26 | 0.0 | 4.8 | 0.00 | 0.08 | 0.00 | 68 | 1012.4 |
| 20260504180035 | 20 | 355 | 0.0 | 8.0 | 0.00 | 0.08 | 0.00 | 69 | 1012.5 |
| 20260504174529 | 19 | 111 | 1.6 | 8.0 | 0.00 | 0.08 | 0.00 | 68 | 1012.6 |
| 20260504173026 | 18 | 169 | 1.6 | 9.7 | 0.00 | 0.08 | 0.00 | 71 | 1012.7 |
| 20260504171523 | 18 | 190 | 1.6 | 9.7 | 0.00 | 0.08 | 0.00 | 72 | 1012.8 |
| 20260504081507 | 11 | 56 | 0.0 | 3.2 | 0.00 | 0.08 | 0.00 | 94 | 1011.5 |
| 20260504060105 | 13 | 121 | 1.6 | 4.8 | 0.00 | 0.08 | 0.08 | 93 | 1011.2 |
| 20260504044556 | 13 | 168 | 0.0 | 3.2 | 0.00 | 0.08 | 0.08 | 90 | 1011.0 |
| 20260504043101 | 13 | 123 | 1.6 | 4.8 | 0.00 | 0.08 | 0.08 | 91 | 1011.1 |
| 20260504041553 | 13 | 27 | 4.8 | 6.4 | 0.00 | 0.08 | 0.08 | 91 | 1010.9 |
| 20260504040052 | 14 | 269 | 4.8 | 6.4 | 0.00 | 0.08 | 0.08 | 88 | 1010.0 |